This demonstration page uses our WeatherBlox Daily Observations layout. Learn more.

39.01783, -85.05884

Hourly Observations for July 6, 2019

Temp ( °F °C ) Dew Point ( °F °C ) Humidity (%) Winds ( mph kmh ) Pressure ( in mb ) Visibility ( mi km ) Precip ( " mm )
12:52 am 00:52 Clear 75 23.9 71 21.7 88 88 S 5 7 29.97 1015 10 16.09344 0 0
1:52 am 01:52 Clear 77 25 71 21.7 82 82 Calm 29.97 1015 10 16.09344 0 0
2:52 am 02:52 Partly Cloudy 74 23.3 71 21.7 91 91 SSW 5 7 29.97 1015 10 16.09344 0 0
3:52 am 03:52 Partly Cloudy 74 23.3 71 21.7 91 91 Calm 29.97 1015 9 14.484096 0 0
4:52 am 04:52 Mostly Cloudy 74 23.3 70 21.1 88 88 SW 6 9 29.97 1015 9 14.484096 0 0
5:52 am 05:52 Partly Cloudy 73 22.8 71 21.7 94 94 Calm 29.97 1015 9 14.484096 0 0
6:52 am 06:52 Mostly Sunny 73 22.8 71 21.7 94 94 SSW 8 13 29.97 1015 8 12.874752 0 0
7:52 am 07:52 Partly Cloudy 76 24.4 72 22.2 88 88 SW 6 9 30 1016 9 14.484096 0 0
8:52 am 08:52 Partly Cloudy 79 26.1 72 22.2 79 79 SSW 7 11 30 1016 10 16.09344 0 0
9:52 am 09:52 Partly Cloudy 81 27.2 73 22.8 77 77 W 5 7 30 1016 10 16.09344 0 0
10:52 am 10:52 Partly Cloudy 83 28.3 73 22.8 72 72 VRB 7 11 29.97 1015 10 16.09344 0 0
11:52 am 11:52 Mostly Cloudy 84 28.9 73 22.8 70 70 SSW 9 15 29.97 1015 10 16.09344 0 0
12:52 pm 12:52 Partly Cloudy 86 30 72 22.2 63 63 SSW 10 17 29.97 1015 10 16.09344 0 0
1:52 pm 13:52 Partly Cloudy 86 30 71 21.7 61 61 VRB 7 11 29.94 1014 10 16.09344 0 0
2:52 pm 14:52 Mostly Cloudy 87 30.6 71 21.7 59 59 WSW 9 15 29.94 1014 10 16.09344 0 0
3:52 pm 15:52 Mostly Cloudy 86 30 71 21.7 61 61 WSW 10 17 29.91 1013 10 16.09344 0 0
4:52 pm 16:52 Mostly Cloudy 86 30 69 20.6 57 57 W 15 24 29.91 1013 10 16.09344 0 0
5:52 pm 17:52 Mostly Cloudy 87 30.6 70 21.1 57 57 W 14 22 29.88 1012 10 16.09344 0 0
6:52 pm 18:52 Mostly Cloudy 86 30 70 21.1 59 59 WSW 10 17 29.88 1012 10 16.09344 0 0
7:52 pm 19:52 Mostly Cloudy 85 29.4 70 21.1 61 61 W 8 13 29.88 1012 10 16.09344 0 0
8:52 pm 20:52 Mostly Cloudy with Rain 79 26.1 69 20.6 72 72 NNW 14 22 29.91 1013 5 8.04672 0.001 0.001
9:52 pm 21:52 Mostly Cloudy 77 25 69 20.6 77 77 N 6 9 29.91 1013 10 16.09344 0.02 0.508
10:52 pm 22:52 Cloudy 76 24.4 69 20.6 79 79 Calm 29.91 1013 10 16.09344 0.001 0.001
11:52 pm 23:52 Cloudy 76 24.4 69 20.6 79 79 Calm 29.91 1013 10 16.09344 0 0

Powered by AerisWeather